Year,Month,Day,Hour,Minute,Value (Times are PST for insolation in W/m^2)
2015,08,08,00,00,0.00
2015,08,08,00,01,0.00
2015,08,08,00,02,0.00
2015,08,08,00,03,0.00
2015,08,08,00,04,0.00
2015,08,08,00,05,0.00
2015,08,08,00,06,0.00
2015,08,08,00,07,0.00
2015,08,08,00,08,0.00
2015,08,08,00,09,0.00
2015,08,08,00,10,0.00
2015,08,08,00,11,0.00
2015,08,08,00,12,0.00
2015,08,08,00,13,0.00
2015,08,08,00,14,0.00
2015,08,08,00,15,0.00
2015,08,08,00,16,0.00
2015,08,08,00,17,0.00
2015,08,08,00,18,0.00
2015,08,08,00,19,0.00
2015,08,08,00,20,0.00
2015,08,08,00,21,0.00
2015,08,08,00,22,0.00
2015,08,08,00,23,0.00
2015,08,08,00,24,0.00
2015,08,08,00,25,0.00
2015,08,08,00,26,0.00
2015,08,08,00,27,0.00
2015,08,08,00,28,0.00
2015,08,08,00,29,0.00
2015,08,08,00,30,0.00
2015,08,08,00,31,0.00
2015,08,08,00,32,0.00
2015,08,08,00,33,0.00
2015,08,08,00,34,0.00
2015,08,08,00,35,0.00
2015,08,08,00,36,0.00
2015,08,08,00,37,0.00
2015,08,08,00,38,0.00
2015,08,08,00,39,0.00
2015,08,08,00,40,0.00
2015,08,08,00,41,0.00
2015,08,08,00,42,0.00
2015,08,08,00,43,0.00
2015,08,08,00,44,0.00
2015,08,08,00,45,0.00
2015,08,08,00,46,0.00
2015,08,08,00,47,0.00
2015,08,08,00,48,0.00
2015,08,08,00,49,0.00
2015,08,08,00,50,0.00
2015,08,08,00,51,0.00
2015,08,08,00,52,0.00
2015,08,08,00,53,0.00
2015,08,08,00,54,0.00
2015,08,08,00,55,0.00
2015,08,08,00,56,0.00
2015,08,08,00,57,0.00
2015,08,08,00,58,0.00
2015,08,08,00,59,0.00
2015,08,08,01,00,0.00
2015,08,08,01,01,0.00
2015,08,08,01,02,0.00
2015,08,08,01,03,0.00
2015,08,08,01,04,0.00
2015,08,08,01,05,0.00
2015,08,08,01,06,0.00
2015,08,08,01,07,0.00
2015,08,08,01,08,0.00
2015,08,08,01,09,0.00
2015,08,08,01,10,0.00
2015,08,08,01,11,0.00
2015,08,08,01,12,0.00
2015,08,08,01,13,0.00
2015,08,08,01,14,0.00
2015,08,08,01,15,0.00
2015,08,08,01,16,0.00
2015,08,08,01,17,0.00
2015,08,08,01,18,0.00
2015,08,08,01,19,0.00
2015,08,08,01,20,0.00
2015,08,08,01,21,0.00
2015,08,08,01,22,0.00
2015,08,08,01,23,0.00
2015,08,08,01,24,0.00
2015,08,08,01,25,0.00
2015,08,08,01,26,0.00
2015,08,08,01,27,0.00
2015,08,08,01,28,0.00
2015,08,08,01,29,0.00
2015,08,08,01,30,0.00
2015,08,08,01,31,0.00
2015,08,08,01,32,0.00
2015,08,08,01,33,0.00
2015,08,08,01,34,0.00
2015,08,08,01,35,0.00
2015,08,08,01,36,0.00
2015,08,08,01,37,0.00
2015,08,08,01,38,0.00
2015,08,08,01,39,0.00
2015,08,08,01,40,0.00
2015,08,08,01,41,0.00
2015,08,08,01,42,0.00
2015,08,08,01,43,0.00
2015,08,08,01,44,0.00
2015,08,08,01,45,0.00
2015,08,08,01,46,0.00
2015,08,08,01,47,0.00
2015,08,08,01,48,0.00
2015,08,08,01,49,0.00
2015,08,08,01,50,0.00
2015,08,08,01,51,0.00
2015,08,08,01,52,0.00
2015,08,08,01,53,0.00
2015,08,08,01,54,0.00
2015,08,08,01,55,0.00
2015,08,08,01,56,0.00
2015,08,08,01,57,0.00
2015,08,08,01,58,0.00
2015,08,08,01,59,0.00
2015,08,08,02,00,0.00
2015,08,08,02,01,0.00
2015,08,08,02,02,0.00
2015,08,08,02,03,0.00
2015,08,08,02,04,0.00
2015,08,08,02,05,0.00
2015,08,08,02,06,0.00
2015,08,08,02,07,0.00
2015,08,08,02,08,0.00
2015,08,08,02,09,0.00
2015,08,08,02,10,0.00
2015,08,08,02,11,0.00
2015,08,08,02,12,0.00
2015,08,08,02,13,0.00
2015,08,08,02,14,0.00
2015,08,08,02,15,0.00
2015,08,08,02,16,0.00
2015,08,08,02,17,0.00
2015,08,08,02,18,0.00
2015,08,08,02,19,0.00
2015,08,08,02,20,0.00
2015,08,08,02,21,0.00
2015,08,08,02,22,0.00
2015,08,08,02,23,0.00
2015,08,08,02,24,0.00
2015,08,08,02,25,0.00
2015,08,08,02,26,0.00
2015,08,08,02,27,0.00
2015,08,08,02,28,0.00
2015,08,08,02,29,0.00
2015,08,08,02,30,0.00
2015,08,08,02,31,0.00
2015,08,08,02,32,0.00
2015,08,08,02,33,0.00
2015,08,08,02,34,0.00
2015,08,08,02,35,0.00
2015,08,08,02,36,0.00
2015,08,08,02,37,0.00
2015,08,08,02,38,0.00
2015,08,08,02,39,0.00
2015,08,08,02,40,0.00
2015,08,08,02,41,0.00
2015,08,08,02,42,0.00
2015,08,08,02,43,0.00
2015,08,08,02,44,0.00
2015,08,08,02,45,0.00
2015,08,08,02,46,0.00
2015,08,08,02,47,0.00
2015,08,08,02,48,0.00
2015,08,08,02,49,0.00
2015,08,08,02,50,0.00
2015,08,08,02,51,0.00
2015,08,08,02,52,0.00
2015,08,08,02,53,0.00
2015,08,08,02,54,0.00
2015,08,08,02,55,0.00
2015,08,08,02,56,0.00
2015,08,08,02,57,0.00
2015,08,08,02,58,0.00
2015,08,08,02,59,0.00
2015,08,08,03,00,0.00
2015,08,08,03,01,0.00
2015,08,08,03,02,0.00
2015,08,08,03,03,0.00
2015,08,08,03,04,0.00
2015,08,08,03,05,0.00
2015,08,08,03,06,0.00
2015,08,08,03,07,0.00
2015,08,08,03,08,0.00
2015,08,08,03,09,0.00
2015,08,08,03,10,0.00
2015,08,08,03,11,0.00
2015,08,08,03,12,0.00
2015,08,08,03,13,0.00
2015,08,08,03,14,0.00
2015,08,08,03,15,0.00
2015,08,08,03,16,0.00
2015,08,08,03,17,0.00
2015,08,08,03,18,0.00
2015,08,08,03,19,0.00
2015,08,08,03,20,0.00
2015,08,08,03,21,0.00
2015,08,08,03,22,0.00
2015,08,08,03,23,0.00
2015,08,08,03,24,0.00
2015,08,08,03,25,0.00
2015,08,08,03,26,0.00
2015,08,08,03,27,0.00
2015,08,08,03,28,0.00
2015,08,08,03,29,0.00
2015,08,08,03,30,0.00
2015,08,08,03,31,0.00
2015,08,08,03,32,0.00
2015,08,08,03,33,0.00
2015,08,08,03,34,0.00
2015,08,08,03,35,0.00
2015,08,08,03,36,0.00
2015,08,08,03,37,0.00
2015,08,08,03,38,0.00
2015,08,08,03,39,0.00
2015,08,08,03,40,0.00
2015,08,08,03,41,0.00
2015,08,08,03,42,0.00
2015,08,08,03,43,0.00
2015,08,08,03,44,0.00
2015,08,08,03,45,0.00
2015,08,08,03,46,0.00
2015,08,08,03,47,0.00
2015,08,08,03,48,0.00
2015,08,08,03,49,0.00
2015,08,08,03,50,0.00
2015,08,08,03,51,0.00
2015,08,08,03,52,0.00
2015,08,08,03,53,0.00
2015,08,08,03,54,0.00
2015,08,08,03,55,0.00
2015,08,08,03,56,0.00
2015,08,08,03,57,0.00
2015,08,08,03,58,0.00
2015,08,08,03,59,0.00
2015,08,08,04,00,0.00
2015,08,08,04,01,0.00
2015,08,08,04,02,0.00
2015,08,08,04,03,0.00
2015,08,08,04,04,0.00
2015,08,08,04,05,0.00
2015,08,08,04,06,0.00
2015,08,08,04,07,0.00
2015,08,08,04,08,0.00
2015,08,08,04,09,0.00
2015,08,08,04,10,0.00
2015,08,08,04,11,0.00
2015,08,08,04,12,0.00
2015,08,08,04,13,0.00
2015,08,08,04,14,0.00
2015,08,08,04,15,0.00
2015,08,08,04,16,0.00
2015,08,08,04,17,0.00
2015,08,08,04,18,0.00
2015,08,08,04,19,0.00
2015,08,08,04,20,0.00
2015,08,08,04,21,0.00
2015,08,08,04,22,0.00
2015,08,08,04,23,0.00
2015,08,08,04,24,0.00
2015,08,08,04,25,0.00
2015,08,08,04,26,0.00
2015,08,08,04,27,0.00
2015,08,08,04,28,0.00
2015,08,08,04,29,0.00
2015,08,08,04,30,0.00
2015,08,08,04,31,0.00
2015,08,08,04,32,0.00
2015,08,08,04,33,0.00
2015,08,08,04,34,0.00
2015,08,08,04,35,0.00
2015,08,08,04,36,0.00
2015,08,08,04,37,0.00
2015,08,08,04,38,0.00
2015,08,08,04,39,0.00
2015,08,08,04,40,0.00
2015,08,08,04,41,0.00
2015,08,08,04,42,0.00
2015,08,08,04,43,0.00
2015,08,08,04,44,0.00
2015,08,08,04,45,0.00
2015,08,08,04,46,0.00
2015,08,08,04,47,0.00
2015,08,08,04,48,0.00
2015,08,08,04,49,0.00
2015,08,08,04,50,0.00
2015,08,08,04,51,0.00
2015,08,08,04,52,0.00
2015,08,08,04,53,0.00
2015,08,08,04,54,0.00
2015,08,08,04,55,0.00
2015,08,08,04,56,0.00
2015,08,08,04,57,0.00
2015,08,08,04,58,0.00
2015,08,08,04,59,0.00
2015,08,08,05,00,0.00
2015,08,08,05,01,0.00
2015,08,08,05,02,0.00
2015,08,08,05,03,0.00
2015,08,08,05,04,0.00
2015,08,08,05,05,0.00
2015,08,08,05,06,0.00
2015,08,08,05,07,0.00
2015,08,08,05,08,0.00
2015,08,08,05,09,0.00
2015,08,08,05,10,0.00
2015,08,08,05,11,0.00
2015,08,08,05,12,0.00
2015,08,08,05,13,0.00
2015,08,08,05,14,0.00
2015,08,08,05,15,0.00
2015,08,08,05,16,0.00
2015,08,08,05,17,0.00
2015,08,08,05,18,0.00
2015,08,08,05,19,0.00
2015,08,08,05,20,0.00
2015,08,08,05,21,0.00
2015,08,08,05,22,0.00
2015,08,08,05,23,0.00
2015,08,08,05,24,0.00
2015,08,08,05,25,0.00
2015,08,08,05,26,0.00
2015,08,08,05,27,0.00
2015,08,08,05,28,0.00
2015,08,08,05,29,0.00
2015,08,08,05,30,0.00
2015,08,08,05,31,0.00
2015,08,08,05,32,0.00
2015,08,08,05,33,0.00
2015,08,08,05,34,0.00
2015,08,08,05,35,0.00
2015,08,08,05,36,0.00
2015,08,08,05,37,0.00
2015,08,08,05,38,0.00
2015,08,08,05,39,0.00
2015,08,08,05,40,0.00
2015,08,08,05,41,0.00
2015,08,08,05,42,0.00
2015,08,08,05,43,0.00
2015,08,08,05,44,0.00
2015,08,08,05,45,0.00
2015,08,08,05,46,0.00
2015,08,08,05,47,0.00
2015,08,08,05,48,0.00
2015,08,08,05,49,0.00
2015,08,08,05,50,0.00
2015,08,08,05,51,0.00
2015,08,08,05,52,0.00
2015,08,08,05,53,0.00
2015,08,08,05,54,0.00
2015,08,08,05,55,4.20
2015,08,08,05,56,5.00
2015,08,08,05,57,5.00
2015,08,08,05,58,5.80
2015,08,08,05,59,7.00
2015,08,08,06,00,7.00
2015,08,08,06,01,8.70
2015,08,08,06,02,9.30
2015,08,08,06,03,11.00
2015,08,08,06,04,11.00
2015,08,08,06,05,11.00
2015,08,08,06,06,11.00
2015,08,08,06,07,11.00
2015,08,08,06,08,11.20
2015,08,08,06,09,12.00
2015,08,08,06,10,12.00
2015,08,08,06,11,12.00
2015,08,08,06,12,12.00
2015,08,08,06,13,12.10
2015,08,08,06,14,14.00
2015,08,08,06,15,14.00
2015,08,08,06,16,14.00
2015,08,08,06,17,14.00
2015,08,08,06,18,15.60
2015,08,08,06,19,17.90
2015,08,08,06,20,18.00
2015,08,08,06,21,18.40
2015,08,08,06,22,19.00
2015,08,08,06,23,19.00
2015,08,08,06,24,19.00
2015,08,08,06,25,20.90
2015,08,08,06,26,21.00
2015,08,08,06,27,21.00
2015,08,08,06,28,21.00
2015,08,08,06,29,21.00
2015,08,08,06,30,21.00
2015,08,08,06,31,23.00
2015,08,08,06,32,23.00
2015,08,08,06,33,23.70
2015,08,08,06,34,25.50
2015,08,08,06,35,26.00
2015,08,08,06,36,27.70
2015,08,08,06,37,28.30
2015,08,08,06,38,30.00
2015,08,08,06,39,30.00
2015,08,08,06,40,30.00
2015,08,08,06,41,31.40
2015,08,08,06,42,32.80
2015,08,08,06,43,33.40
2015,08,08,06,44,35.70
2015,08,08,06,45,37.90
2015,08,08,06,46,40.80
2015,08,08,06,47,42.00
2015,08,08,06,48,42.20
2015,08,08,06,49,47.40
2015,08,08,06,50,49.60
2015,08,08,06,51,52.00
2015,08,08,06,52,56.20
2015,08,08,06,53,61.00
2015,08,08,06,54,65.10
2015,08,08,06,55,69.60
2015,08,08,06,56,72.00
2015,08,08,06,57,71.00
2015,08,08,06,58,69.30
2015,08,08,06,59,64.30
2015,08,08,07,00,62.00
2015,08,08,07,01,62.00
2015,08,08,07,02,62.00
2015,08,08,07,03,60.90
2015,08,08,07,04,60.00
2015,08,08,07,05,60.00
2015,08,08,07,06,60.20
2015,08,08,07,07,62.00
2015,08,08,07,08,62.00
2015,08,08,07,09,62.00
2015,08,08,07,10,62.70
2015,08,08,07,11,63.00
2015,08,08,07,12,65.00
2015,08,08,07,13,65.60
2015,08,08,07,14,67.00
2015,08,08,07,15,68.20
2015,08,08,07,16,69.00
2015,08,08,07,17,69.90
2015,08,08,07,18,70.30
2015,08,08,07,19,72.00
2015,08,08,07,20,72.00
2015,08,08,07,21,73.20
2015,08,08,07,22,75.40
2015,08,08,07,23,76.90
2015,08,08,07,24,79.40
2015,08,08,07,25,81.90
2015,08,08,07,26,84.90
2015,08,08,07,27,87.20
2015,08,08,07,28,89.50
2015,08,08,07,29,91.00
2015,08,08,07,30,93.00
2015,08,08,07,31,93.70
2015,08,08,07,32,96.00
2015,08,08,07,33,97.00
2015,08,08,07,34,97.00
2015,08,08,07,35,95.20
2015,08,08,07,36,95.40
2015,08,08,07,37,97.00
2015,08,08,07,38,97.50
2015,08,08,07,39,99.30
2015,08,08,07,40,101.60
2015,08,08,07,41,103.90
2015,08,08,07,42,104.00
2015,08,08,07,43,104.40
2015,08,08,07,44,106.10
2015,08,08,07,45,109.70
2015,08,08,07,46,111.00
2015,08,08,07,47,114.10
2015,08,08,07,48,116.50
2015,08,08,07,49,118.00
2015,08,08,07,50,123.30
2015,08,08,07,51,132.60
2015,08,08,07,52,136.70
2015,08,08,07,53,137.30
2015,08,08,07,54,141.60
2015,08,08,07,55,148.60
2015,08,08,07,56,150.90
2015,08,08,07,57,161.40
2015,08,08,07,58,162.40
2015,08,08,07,59,169.80
2015,08,08,08,00,175.30
2015,08,08,08,01,181.10
2015,08,08,08,02,185.00
2015,08,08,08,03,185.00
2015,08,08,08,04,199.60
2015,08,08,08,05,206.10
2015,08,08,08,06,217.40
2015,08,08,08,07,209.70
2015,08,08,08,08,203.30
2015,08,08,08,09,197.20
2015,08,08,08,10,196.90
2015,08,08,08,11,201.20
2015,08,08,08,12,206.00
2015,08,08,08,13,206.00
2015,08,08,08,14,210.20
2015,08,08,08,15,216.80
2015,08,08,08,16,226.30
2015,08,08,08,17,273.20
2015,08,08,08,18,297.50
2015,08,08,08,19,266.50
2015,08,08,08,20,246.10
2015,08,08,08,21,241.60
2015,08,08,08,22,227.50
2015,08,08,08,23,207.20
2015,08,08,08,24,213.40
2015,08,08,08,25,194.30
2015,08,08,08,26,188.70
2015,08,08,08,27,189.60
2015,08,08,08,28,195.60
2015,08,08,08,29,206.10
2015,08,08,08,30,216.40
2015,08,08,08,31,224.30
2015,08,08,08,32,227.00
2015,08,08,08,33,228.70
2015,08,08,08,34,229.00
2015,08,08,08,35,229.30
2015,08,08,08,36,232.40
2015,08,08,08,37,238.90
2015,08,08,08,38,245.90
2015,08,08,08,39,252.20
2015,08,08,08,40,258.60
2015,08,08,08,41,262.60
2015,08,08,08,42,264.00
2015,08,08,08,43,264.00
2015,08,08,08,44,264.70
2015,08,08,08,45,265.00
2015,08,08,08,46,264.80
2015,08,08,08,47,264.00
2015,08,08,08,48,262.20
2015,08,08,08,49,261.30
2015,08,08,08,50,264.20
2015,08,08,08,51,266.80
2015,08,08,08,52,268.40
2015,08,08,08,53,272.90
2015,08,08,08,54,265.50
2015,08,08,08,55,260.10
2015,08,08,08,56,261.20
2015,08,08,08,57,260.30
2015,08,08,08,58,262.00
2015,08,08,08,59,262.00
2015,08,08,09,00,245.40
2015,08,08,09,01,215.90
2015,08,08,09,02,202.30
2015,08,08,09,03,199.00
2015,08,08,09,04,197.50
2015,08,08,09,05,200.10
2015,08,08,09,06,206.50
2015,08,08,09,07,217.20
2015,08,08,09,08,224.00
2015,08,08,09,09,229.80
2015,08,08,09,10,229.20
2015,08,08,09,11,225.30
2015,08,08,09,12,220.20
2015,08,08,09,13,213.10
2015,08,08,09,14,207.80
2015,08,08,09,15,203.80
2015,08,08,09,16,202.50
2015,08,08,09,17,204.80
2015,08,08,09,18,206.60
2015,08,08,09,19,209.90
2015,08,08,09,20,211.00
2015,08,08,09,21,213.10
2015,08,08,09,22,214.00
2015,08,08,09,23,214.90
2015,08,08,09,24,217.20
2015,08,08,09,25,216.50
2015,08,08,09,26,214.20
2015,08,08,09,27,214.00
2015,08,08,09,28,214.00
2015,08,08,09,29,213.50
2015,08,08,09,30,211.80
2015,08,08,09,31,211.00
2015,08,08,09,32,210.80
2015,08,08,09,33,206.40
2015,08,08,09,34,202.60
2015,08,08,09,35,197.50
2015,08,08,09,36,193.10
2015,08,08,09,37,187.50
2015,08,08,09,38,183.20
2015,08,08,09,39,181.40
2015,08,08,09,40,183.70
2015,08,08,09,41,185.50
2015,08,08,09,42,187.30
2015,08,08,09,43,189.60
2015,08,08,09,44,189.80
2015,08,08,09,45,188.00
2015,08,08,09,46,187.30
2015,08,08,09,47,185.50
2015,08,08,09,48,182.20
2015,08,08,09,49,178.50
2015,08,08,09,50,174.00
2015,08,08,09,51,172.50
2015,08,08,09,52,175.70
2015,08,08,09,53,178.50
2015,08,08,09,54,181.60
2015,08,08,09,55,187.00
2015,08,08,09,56,196.40
2015,08,08,09,57,206.40
2015,08,08,09,58,217.00
2015,08,08,09,59,229.10
2015,08,08,10,00,237.40
2015,08,08,10,01,239.00
2015,08,08,10,02,239.00
2015,08,08,10,03,238.10
2015,08,08,10,04,234.20
2015,08,08,10,05,230.80
2015,08,08,10,06,229.30
2015,08,08,10,07,221.10
2015,08,08,10,08,213.40
2015,08,08,10,09,210.40
2015,08,08,10,10,210.80
2015,08,08,10,11,214.80
2015,08,08,10,12,218.90
2015,08,08,10,13,224.40
2015,08,08,10,14,227.00
2015,08,08,10,15,227.70
2015,08,08,10,16,231.50
2015,08,08,10,17,240.00
2015,08,08,10,18,257.50
2015,08,08,10,19,264.30
2015,08,08,10,20,273.20
2015,08,08,10,21,280.50
2015,08,08,10,22,288.50
2015,08,08,10,23,300.40
2015,08,08,10,24,307.40
2015,08,08,10,25,315.60
2015,08,08,10,26,327.90
2015,08,08,10,27,338.60
2015,08,08,10,28,335.00
2015,08,08,10,29,335.90
2015,08,08,10,30,342.20
2015,08,08,10,31,337.60
2015,08,08,10,32,321.00
2015,08,08,10,33,314.20
2015,08,08,10,34,305.60
2015,08,08,10,35,289.90
2015,08,08,10,36,272.20
2015,08,08,10,37,254.90
2015,08,08,10,38,239.30
2015,08,08,10,39,225.40
2015,08,08,10,40,217.80
2015,08,08,10,41,213.80
2015,08,08,10,42,209.60
2015,08,08,10,43,206.20
2015,08,08,10,44,202.00
2015,08,08,10,45,202.00
2015,08,08,10,46,199.00
2015,08,08,10,47,197.00
2015,08,08,10,48,195.20
2015,08,08,10,49,194.70
2015,08,08,10,50,192.70
2015,08,08,10,51,191.10
2015,08,08,10,52,190.00
2015,08,08,10,53,190.00
2015,08,08,10,54,192.90
2015,08,08,10,55,200.80
2015,08,08,10,56,203.30
2015,08,08,10,57,200.50
2015,08,08,10,58,196.50
2015,08,08,10,59,195.00
2015,08,08,11,00,198.80
2015,08,08,11,01,202.00
2015,08,08,11,02,200.90
2015,08,08,11,03,199.00
2015,08,08,11,04,199.60
2015,08,08,11,05,205.50
2015,08,08,11,06,214.20
2015,08,08,11,07,224.80
2015,08,08,11,08,232.60
2015,08,08,11,09,240.00
2015,08,08,11,10,246.20
2015,08,08,11,11,252.00
2015,08,08,11,12,257.30
2015,08,08,11,13,261.00
2015,08,08,11,14,264.40
2015,08,08,11,15,266.10
2015,08,08,11,16,267.00
2015,08,08,11,17,267.00
2015,08,08,11,18,266.80
2015,08,08,11,19,264.20
2015,08,08,11,20,261.20
2015,08,08,11,21,262.20
2015,08,08,11,22,264.00
2015,08,08,11,23,274.70
2015,08,08,11,24,284.30
2015,08,08,11,25,295.20
2015,08,08,11,26,310.40
2015,08,08,11,27,329.90
2015,08,08,11,28,349.90
2015,08,08,11,29,389.90
2015,08,08,11,30,411.50
2015,08,08,11,31,432.50
2015,08,08,11,32,431.70
2015,08,08,11,33,427.00
2015,08,08,11,34,399.70
2015,08,08,11,35,374.70
2015,08,08,11,36,373.20
2015,08,08,11,37,375.30
2015,08,08,11,38,378.00
2015,08,08,11,39,376.70
2015,08,08,11,40,376.00
2015,08,08,11,41,373.70
2015,08,08,11,42,366.50
2015,08,08,11,43,352.80
2015,08,08,11,44,339.50
2015,08,08,11,45,328.30
2015,08,08,11,46,319.40
2015,08,08,11,47,312.80
2015,08,08,11,48,306.60
2015,08,08,11,49,297.10
2015,08,08,11,50,284.00
2015,08,08,11,51,269.10
2015,08,08,11,52,257.00
2015,08,08,11,53,247.90
2015,08,08,11,54,242.00
2015,08,08,11,55,237.90
2015,08,08,11,56,236.00
2015,08,08,11,57,238.10
2015,08,08,11,58,242.40
2015,08,08,11,59,244.60
2015,08,08,12,00,249.50
2015,08,08,12,01,256.60
2015,08,08,12,02,266.00
2015,08,08,12,03,275.60
2015,08,08,12,04,280.50
2015,08,08,12,05,284.40
2015,08,08,12,06,281.00
2015,08,08,12,07,281.80
2015,08,08,12,08,285.20
2015,08,08,12,09,291.90
2015,08,08,12,10,296.80
2015,08,08,12,11,303.40
2015,08,08,12,12,313.70
2015,08,08,12,13,326.30
2015,08,08,12,14,342.10
2015,08,08,12,15,358.50
2015,08,08,12,16,377.20
2015,08,08,12,17,396.50
2015,08,08,12,18,408.20
2015,08,08,12,19,398.60
2015,08,08,12,20,387.60
2015,08,08,12,21,379.80
2015,08,08,12,22,371.50
2015,08,08,12,23,367.90
2015,08,08,12,24,361.50
2015,08,08,12,25,353.50
2015,08,08,12,26,343.10
2015,08,08,12,27,332.20
2015,08,08,12,28,323.40
2015,08,08,12,29,319.20
2015,08,08,12,30,315.00
2015,08,08,12,31,309.50
2015,08,08,12,32,302.80
2015,08,08,12,33,297.80
2015,08,08,12,34,291.80
2015,08,08,12,35,286.00
2015,08,08,12,36,283.00
2015,08,08,12,37,285.20
2015,08,08,12,38,292.60
2015,08,08,12,39,306.20
2015,08,08,12,40,329.40
2015,08,08,12,41,355.80
2015,08,08,12,42,381.40
2015,08,08,12,43,403.30
2015,08,08,12,44,420.70
2015,08,08,12,45,444.40
2015,08,08,12,46,446.30
2015,08,08,12,47,444.40
2015,08,08,12,48,432.00
2015,08,08,12,49,433.40
2015,08,08,12,50,462.50
2015,08,08,12,51,419.80
2015,08,08,12,52,392.60
2015,08,08,12,53,380.20
2015,08,08,12,54,359.10
2015,08,08,12,55,337.70
2015,08,08,12,56,319.70
2015,08,08,12,57,305.20
2015,08,08,12,58,289.80
2015,08,08,12,59,278.80
2015,08,08,13,00,270.90
2015,08,08,13,01,261.40
2015,08,08,13,02,251.60
2015,08,08,13,03,241.40
2015,08,08,13,04,230.10
2015,08,08,13,05,219.90
2015,08,08,13,06,209.00
2015,08,08,13,07,196.90
2015,08,08,13,08,181.20
2015,08,08,13,09,158.60
2015,08,08,13,10,132.60
2015,08,08,13,11,109.70
2015,08,08,13,12,93.00
2015,08,08,13,13,83.40
2015,08,08,13,14,77.60
2015,08,08,13,15,75.70
2015,08,08,13,16,71.50
2015,08,08,13,17,70.80
2015,08,08,13,18,74.90
2015,08,08,13,19,81.90
2015,08,08,13,20,91.60
2015,08,08,13,21,103.30
2015,08,08,13,22,113.40
2015,08,08,13,23,122.00
2015,08,08,13,24,129.90
2015,08,08,13,25,138.90
2015,08,08,13,26,141.00
2015,08,08,13,27,143.10
2015,08,08,13,28,155.90
2015,08,08,13,29,159.90
2015,08,08,13,30,162.60
2015,08,08,13,31,162.30
2015,08,08,13,32,162.10
2015,08,08,13,33,165.00
2015,08,08,13,34,165.00
2015,08,08,13,35,164.10
2015,08,08,13,36,161.20
2015,08,08,13,37,160.00
2015,08,08,13,38,158.10
2015,08,08,13,39,154.70
2015,08,08,13,40,154.00
2015,08,08,13,41,157.90
2015,08,08,13,42,161.20
2015,08,08,13,43,160.40
2015,08,08,13,44,160.00
2015,08,08,13,45,159.20
2015,08,08,13,46,154.90
2015,08,08,13,47,152.10
2015,08,08,13,48,149.80
2015,08,08,13,49,149.00
2015,08,08,13,50,148.90
2015,08,08,13,51,148.00
2015,08,08,13,52,147.30
2015,08,08,13,53,146.00
2015,08,08,13,54,146.00
2015,08,08,13,55,146.00
2015,08,08,13,56,148.00
2015,08,08,13,57,149.00
2015,08,08,13,58,149.00
2015,08,08,13,59,149.00
2015,08,08,14,00,148.30
2015,08,08,14,01,148.00
2015,08,08,14,02,149.40
2015,08,08,14,03,153.90
2015,08,08,14,04,158.50
2015,08,08,14,05,164.80
2015,08,08,14,06,170.50
2015,08,08,14,07,175.60
2015,08,08,14,08,176.30
2015,08,08,14,09,177.40
2015,08,08,14,10,175.10
2015,08,08,14,11,174.00
2015,08,08,14,12,171.90
2015,08,08,14,13,167.60
2015,08,08,14,14,163.00
2015,08,08,14,15,160.90
2015,08,08,14,16,155.60
2015,08,08,14,17,151.20
2015,08,08,14,18,146.90
2015,08,08,14,19,142.60
2015,08,08,14,20,142.00
2015,08,08,14,21,142.00
2015,08,08,14,22,142.00
2015,08,08,14,23,140.10
2015,08,08,14,24,135.80
2015,08,08,14,25,130.20
2015,08,08,14,26,123.80
2015,08,08,14,27,118.60
2015,08,08,14,28,115.00
2015,08,08,14,29,113.40
2015,08,08,14,30,113.00
2015,08,08,14,31,114.60
2015,08,08,14,32,121.80
2015,08,08,14,33,130.70
2015,08,08,14,34,142.50
2015,08,08,14,35,156.70
2015,08,08,14,36,172.10
2015,08,08,14,37,185.40
2015,08,08,14,38,196.80
2015,08,08,14,39,204.10
2015,08,08,14,40,208.10
2015,08,08,14,41,209.00
2015,08,08,14,42,210.60
2015,08,08,14,43,214.90
2015,08,08,14,44,221.80
2015,08,08,14,45,229.00
2015,08,08,14,46,234.30
2015,08,08,14,47,236.00
2015,08,08,14,48,234.30
2015,08,08,14,49,229.60
2015,08,08,14,50,224.80
2015,08,08,14,51,216.90
2015,08,08,14,52,206.60
2015,08,08,14,53,195.00
2015,08,08,14,54,183.90
2015,08,08,14,55,177.10
2015,08,08,14,56,171.70
2015,08,08,14,57,170.10
2015,08,08,14,58,167.80
2015,08,08,14,59,167.00
2015,08,08,15,00,168.90
2015,08,08,15,01,171.20
2015,08,08,15,02,172.70
2015,08,08,15,03,175.90
2015,08,08,15,04,181.00
2015,08,08,15,05,189.90
2015,08,08,15,06,198.90
2015,08,08,15,07,203.60
2015,08,08,15,08,200.90
2015,08,08,15,09,197.00
2015,08,08,15,10,193.10
2015,08,08,15,11,192.00
2015,08,08,15,12,192.00
2015,08,08,15,13,192.00
2015,08,08,15,14,192.00
2015,08,08,15,15,192.00
2015,08,08,15,16,192.70
2015,08,08,15,17,194.70
2015,08,08,15,18,195.00
2015,08,08,15,19,196.20
2015,08,08,15,20,200.00
2015,08,08,15,21,200.00
2015,08,08,15,22,199.30
2015,08,08,15,23,195.60
2015,08,08,15,24,189.50
2015,08,08,15,25,183.50
2015,08,08,15,26,176.80
2015,08,08,15,27,172.30
2015,08,08,15,28,169.60
2015,08,08,15,29,165.60
2015,08,08,15,30,162.90
2015,08,08,15,31,162.00
2015,08,08,15,32,161.10
2015,08,08,15,33,157.70
2015,08,08,15,34,155.30
2015,08,08,15,35,153.30
2015,08,08,15,36,153.00
2015,08,08,15,37,152.40
2015,08,08,15,38,151.00
2015,08,08,15,39,152.20
2015,08,08,15,40,154.40
2015,08,08,15,41,159.80
2015,08,08,15,42,166.40
2015,08,08,15,43,173.40
2015,08,08,15,44,176.90
2015,08,08,15,45,175.40
2015,08,08,15,46,170.10
2015,08,08,15,47,167.60
2015,08,08,15,48,171.60
2015,08,08,15,49,174.00
2015,08,08,15,50,173.00
2015,08,08,15,51,170.10
2015,08,08,15,52,163.40
2015,08,08,15,53,152.80
2015,08,08,15,54,145.20
2015,08,08,15,55,144.80
2015,08,08,15,56,152.70
2015,08,08,15,57,158.60
2015,08,08,15,58,154.10
2015,08,08,15,59,141.60
2015,08,08,16,00,130.20
2015,08,08,16,01,124.30
2015,08,08,16,02,124.10
2015,08,08,16,03,128.40
2015,08,08,16,04,133.20
2015,08,08,16,05,137.30
2015,08,08,16,06,139.90
2015,08,08,16,07,142.90
2015,08,08,16,08,142.30
2015,08,08,16,09,136.80
2015,08,08,16,10,130.80
2015,08,08,16,11,131.70
2015,08,08,16,12,146.10
2015,08,08,16,13,165.20
2015,08,08,16,14,178.90
2015,08,08,16,15,186.80
2015,08,08,16,16,189.80
2015,08,08,16,17,193.30
2015,08,08,16,18,195.00
2015,08,08,16,19,194.10
2015,08,08,16,20,187.20
2015,08,08,16,21,173.00
2015,08,08,16,22,168.10
2015,08,08,16,23,149.70
2015,08,08,16,24,140.50
2015,08,08,16,25,127.80
2015,08,08,16,26,115.00
2015,08,08,16,27,106.50
2015,08,08,16,28,105.30
2015,08,08,16,29,114.80
2015,08,08,16,30,139.10
2015,08,08,16,31,167.50
2015,08,08,16,32,183.60
2015,08,08,16,33,185.20
2015,08,08,16,34,174.60
2015,08,08,16,35,152.90
2015,08,08,16,36,123.70
2015,08,08,16,37,97.00
2015,08,08,16,38,83.40
2015,08,08,16,39,83.40
2015,08,08,16,40,96.20
2015,08,08,16,41,109.80
2015,08,08,16,42,119.10
2015,08,08,16,43,119.50
2015,08,08,16,44,114.70
2015,08,08,16,45,106.20
2015,08,08,16,46,93.50
2015,08,08,16,47,77.70
2015,08,08,16,48,72.70
2015,08,08,16,49,87.40
2015,08,08,16,50,98.70
2015,08,08,16,51,97.40
2015,08,08,16,52,91.30
2015,08,08,16,53,96.70
2015,08,08,16,54,115.10
2015,08,08,16,55,134.60
2015,08,08,16,56,152.10
2015,08,08,16,57,165.10
2015,08,08,16,58,160.80
2015,08,08,16,59,143.30
2015,08,08,17,00,119.70
2015,08,08,17,01,93.10
2015,08,08,17,02,72.50
2015,08,08,17,03,65.50
2015,08,08,17,04,67.60
2015,08,08,17,05,73.50
2015,08,08,17,06,88.20
2015,08,08,17,07,104.20
2015,08,08,17,08,115.80
2015,08,08,17,09,118.50
2015,08,08,17,10,128.40
2015,08,08,17,11,131.40